[[{"header":{"parameterUnit":"m.s-1","parameterCategory":1,"la1":30.2991,"la2":30.254,"lo1":-89.0895,"lo2":-89.0444,"dy":0.0017,"dx":0.0017,"nx":28,"ny":28,"refTime":"2024-06-25T21:00:00:Z","depth":0,"parameterNumber":2,"parameterNumberName":"U-component_of_WINDS"},"data":[0,0,0,0,0,0,0,0,0,0,0,0,0,0,0,0,0,0,0,0,0,0,0,0,0,0,0,0,0,0,0,0,0,0,0,0,0,0,0,0,0,0,0,0,0,0,0,0,0,0,0,0,0,0,0,0,0,0,5.5073,5.5073,0,5.5101,5.5102,5.5102,5.504,5.5038,5.5036,5.5034,5.5064,5.5066,5.5069,0,0,0,0,0,0,0,0,0,0,0,0,0,5.4968,5.497,5.5073,5.5073,5.5073,5.5101,5.5102,5.5102,5.504,5.5038,5.5035,5.5033,5.5063,5.5066,5.5069,0,0,0,0,0,0,0,0,0,0,0,0,0,5.5007,5.4971,5.5073,5.5046,5.5044,5.5101,5.5102,5.5102,5.5041,5.5038,5.5035,5.5032,5.5062,5.5066,5.507,5.5155,0,0,5.5082,5.5084,0,0,0,0,0,0,0,0,5.5005,5.5011,5.5049,5.5048,5.5046,5.5064,5.5076,5.512,5.5041,5.5042,5.5034,5.503,5.5066,5.507,5.5082,5.5156,5.5157,5.5082,5.5085,5.5086,5.5087,0,0,0,0,0,0,0,5.5002,5.5009,5.5084,5.505,5.5048,5.5034,5.5036,5.5084,5.5071,5.5042,5.5037,5.5041,5.5065,5.5078,5.5082,5.5158,5.5082,5.5086,5.5088,5.509,5.5307,5.5311,0,0,0,0,0,0,5.5002,5.5007,5.5083,5.5085,5.5017,5.5038,5.504,5.5061,5.507,5.5068,5.5044,5.5038,5.5073,5.5077,5.5083,5.5185,5.5086,5.509,5.5092,5.5304,5.5308,5.5312,0,0,0,0,0,0,5.5,5.501,5.5082,5.5045,5.5053,5.5043,5.5067,5.5063,5.5076,5.5072,5.5069,5.506,5.507,5.5077,5.5138,5.5185,5.5092,5.5095,5.53,5.5305,5.531,5.5388,0,0,0,0,0,0,5.4998,5.5009,5.504,5.5046,5.5055,5.5136,5.5069,5.5066,5.5083,5.5076,5.5086,5.5084,5.5069,5.5132,5.5142,5.5188,5.5099,5.5296,5.5302,5.5308,5.5381,5.5395,5.5407,0,0,0,0,0,5.4994,5.506,5.5042,5.5051,5.5094,5.5138,5.5144,5.5124,5.5087,5.5119,5.5117,5.5084,5.5179,5.5139,5.5149,5.5198,5.5293,5.5301,5.5308,5.5375,5.5392,5.5407,0,0,0,0,0,0,5.5059,5.506,5.504,5.511,5.5125,5.5128,5.5167,5.5142,5.5167,5.5159,5.5134,5.5137,5.5204,5.5207,5.5163,5.5283,5.523,5.524,5.5277,5.5293,5.5306,5.5303,5.5102,0,0,0,0,0,5.5082,5.5117,5.5117,5.5179,5.5187,5.5177,5.5195,5.5179,5.5193,5.5199,5.5201,5.5216,5.525,5.5272,5.5302,5.5382,5.5385,5.5421,5.5434,5.5445,5.5453,5.5499,5.5516,5.5337,5.5337,5.5337,0,0,5.5128,5.5134,5.5157,5.5192,5.5201,5.524,5.5182,5.5224,5.5253,5.5205,5.5263,5.5266,5.5282,5.5354,5.5385,5.5358,5.5504,5.5455,5.5463,5.5466,5.5508,5.5525,5.554,5.5342,5.5341,5.534,0,0,5.5233,5.524,5.5293,5.5305,5.5321,5.5314,5.5328,5.5335,5.5336,5.5394,5.536,5.5395,5.5452,5.5466,5.548,5.5597,5.5568,5.5607,5.5674,5.5719,5.5733,5.5745,5.5788,5.5803,5.5616,5.5617,5.5617,0,5.5288,5.5344,5.5324,5.537,5.5388,5.5348,5.5404,5.5416,5.5441,5.5455,5.5425,5.5499,5.5507,5.5582,5.5611,5.5624,5.564,5.5605,5.5732,5.5745,5.5756,5.5796,5.5812,5.5621,5.5621,5.562,5.562,0,5.5413,5.5454,5.5495,5.5522,5.5544,5.5594,5.5583,5.5609,5.5593,5.559,5.5652,5.5661,5.5693,5.5711,5.5694,5.5785,5.5769,5.5736,5.5682,5.5778,5.5815,5.5831,5.5628,5.5626,5.5625,5.5624,0,0,5.5555,5.5573,5.5589,5.5602,5.5619,5.565,5.5701,5.5734,5.5757,5.5777,5.582,5.5872,5.5843,5.586,5.5846,5.5885,5.5979,5.5848,5.5848,5.5873,5.6082,5.6106,5.6124,5.5962,5.5964,5.5967,5.6081,0,5.566,5.5745,5.5731,5.5815,5.5853,5.5819,5.5863,5.588,5.588,5.5913,5.5914,5.5951,5.591,5.5921,5.5958,5.596,5.6021,5.5951,5.6002,5.6004,5.5997,5.6143,5.6167,5.6274,5.6095,5.6098,5.61,0,5.5791,5.5818,5.5906,5.5921,5.5936,5.5976,5.6007,5.6039,5.6059,5.6056,5.6078,5.6058,5.611,5.6058,5.6131,5.6084,5.6105,5.611,5.6113,5.6116,5.6056,5.615,5.6308,5.6324,5.6122,5.612,5.6119,0,5.5887,5.5945,5.6006,5.6018,5.6036,5.6066,5.6075,5.6091,5.6114,5.6141,5.6156,5.619,5.6208,5.6236,5.6226,5.6189,5.6303,5.6248,5.6303,5.6303,5.6326,5.6325,5.649,5.6341,5.6341,5.6341,5.6341,0,5.6004,5.606,5.605,5.6087,5.615,5.6134,5.6197,5.6202,5.6218,5.6257,5.623,5.6268,5.6253,5.6291,5.6284,5.6347,5.6356,5.6356,5.6353,5.6358,5.6358,5.637,5.6362,5.6345,5.6344,5.6343,5.6343,0,5.612,5.6116,5.618,5.6194,5.6199,5.6244,5.6256,5.6292,5.6292,5.6343,5.6354,5.6353,5.6396,5.6391,5.6438,5.6434,5.6513,5.6501,5.6506,5.6503,5.6558,5.6553,5.6735,5.6759,5.6596,5.6598,5.6599,0,5.6195,5.6237,5.6256,5.6281,5.6292,5.6332,5.6355,5.6343,5.6369,5.6397,5.643,5.6471,5.6503,5.6574,5.6579,5.6617,5.6606,5.6668,5.6611,5.6615,5.6607,5.6604,5.6609,5.6678,5.668,5.6681,5.6682,0,5.6328,5.6325,5.6359,5.6394,5.6423,5.6449,5.6473,5.6495,5.6486,5.6517,5.6561,5.6586,5.6637,5.6678,5.6715,5.6725,5.6703,5.6701,5.6715,5.672,5.6721,5.6721,5.6536,5.6696,5.6695,5.6694,5.6693,5.6692,5.6426,5.6463,5.6483,5.6523,5.6541,5.6565,5.66,5.6606,5.6642,5.6682,5.6674,5.6725,5.6747,5.6793,5.6809,5.6849,5.6827,5.6848,5.6853,5.6858,5.6865,5.6716,5.6856,5.6855,5.6855,5.6855,5.6854,0,5.6558,5.657,5.6608,5.6643,5.6676,5.6653,5.668,5.6709,5.6754,5.6776,5.6809,5.6862,5.6904,5.6914,5.6954,5.6985,5.6976,5.6996,5.6993,5.6996,5.6882,5.6865,5.7002,5.7002,5.7002,5.7002,5.7002,5.7002,5.663,5.6693,5.6693,5.6765,5.6777,5.6826,5.6844,5.6867,5.6885,5.6945,5.698,5.6986,5.7005,5.7047,5.7085,5.7087,5.7103,5.7128,5.7126,5.7019,5.7004,5.6989,5.6974,5.7131,5.7131,5.7236,5.7237,5.7238]},{"header":{"parameterUnit":"m.s-1","parameterCategory":1,"la1":30.2991,"la2":30.254,"lo1":-89.0895,"lo2":-89.0444,"dy":0.0017,"dx":0.0017,"nx":28,"ny":28,"refTime":"2024-06-25T21:00:00:Z","depth":0,"parameterNumber":3,"parameterNumberName":"V-component_of_WINDS"},"data":[0,0,0,0,0,0,0,0,0,0,0,0,0,0,0,0,0,0,0,0,0,0,0,0,0,0,0,0,0,0,0,0,0,0,0,0,0,0,0,0,0,0,0,0,0,0,0,0,0,0,0,0,0,0,0,0,0,0,-1.091,-1.0909,0,-1.0873,-1.0873,-1.0872,-1.0832,-1.0831,-1.0831,-1.083,-1.0791,-1.0791,-1.079,0,0,0,0,0,0,0,0,0,0,0,0,0,-1.0945,-1.0945,-1.091,-1.0909,-1.0909,-1.0873,-1.0873,-1.0872,-1.0832,-1.0831,-1.0831,-1.083,-1.0791,-1.0791,-1.079,0,0,0,0,0,0,0,0,0,0,0,0,0,-1.0921,-1.0945,-1.091,-1.0885,-1.0882,-1.0873,-1.0873,-1.0872,-1.0832,-1.0831,-1.083,-1.083,-1.0792,-1.0791,-1.079,-1.0803,0,0,-1.0788,-1.0788,0,0,0,0,0,0,0,0,-1.0923,-1.092,-1.0889,-1.0886,-1.0883,-1.0856,-1.0871,-1.0849,-1.0832,-1.0851,-1.083,-1.0829,-1.0813,-1.0811,-1.0806,-1.0801,-1.0799,-1.0788,-1.0787,-1.0787,-1.0787,0,0,0,0,0,0,0,-1.0924,-1.0921,-1.0895,-1.0888,-1.0885,-1.0875,-1.0871,-1.0866,-1.0837,-1.0849,-1.0846,-1.0843,-1.0812,-1.0807,-1.0805,-1.0799,-1.0788,-1.0787,-1.0787,-1.0786,-1.0804,-1.0805,0,0,0,0,0,0,-1.093,-1.0923,-1.0896,-1.0894,-1.0901,-1.0875,-1.087,-1.0866,-1.0837,-1.0832,-1.0843,-1.0841,-1.0808,-1.0806,-1.0803,-1.0817,-1.0787,-1.0786,-1.0786,-1.0803,-1.0804,-1.0805,0,0,0,0,0,0,-1.0931,-1.0928,-1.0898,-1.0908,-1.0903,-1.0875,-1.0871,-1.0865,-1.086,-1.0833,-1.0828,-1.0843,-1.0808,-1.0804,-1.0804,-1.0815,-1.0786,-1.0785,-1.0802,-1.0804,-1.0805,-1.0844,0,0,0,0,0,0,-1.0932,-1.0928,-1.0933,-1.0908,-1.0903,-1.0899,-1.0871,-1.0865,-1.0859,-1.0856,-1.0832,-1.0827,-1.0807,-1.0805,-1.0803,-1.0813,-1.0785,-1.0801,-1.0803,-1.0805,-1.0842,-1.0847,-1.0851,0,0,0,0,0,-1.0933,-1.0945,-1.0933,-1.093,-1.0908,-1.09,-1.0897,-1.0874,-1.086,-1.0865,-1.0847,-1.0827,-1.0814,-1.0805,-1.0803,-1.0813,-1.08,-1.0802,-1.0804,-1.084,-1.0846,-1.0851,0,0,0,0,0,0,-1.097,-1.0941,-1.0928,-1.0932,-1.0919,-1.0893,-1.0897,-1.0881,-1.0871,-1.0868,-1.0839,-1.0834,-1.0837,-1.0825,-1.0816,-1.0825,-1.0805,-1.0806,-1.0832,-1.0838,-1.0842,-1.0845,-1.0784,0,0,0,0,0,-1.0979,-1.0975,-1.095,-1.0956,-1.095,-1.0925,-1.0921,-1.0904,-1.0889,-1.0884,-1.0866,-1.0852,-1.0845,-1.0841,-1.0833,-1.084,-1.0835,-1.0846,-1.0851,-1.0855,-1.0856,-1.0861,-1.0866,-1.0812,-1.0812,-1.0812,0,0,-1.0997,-1.098,-1.0979,-1.0963,-1.0951,-1.0947,-1.0921,-1.0918,-1.0915,-1.0883,-1.0882,-1.0869,-1.0852,-1.0856,-1.0856,-1.0846,-1.087,-1.0858,-1.0861,-1.086,-1.0863,-1.0868,-1.0873,-1.0814,-1.0813,-1.0813,0,0,-1.1027,-1.1015,-1.1018,-1.1008,-1.099,-1.0974,-1.0975,-1.0952,-1.0943,-1.0941,-1.0918,-1.0914,-1.0902,-1.0891,-1.0884,-1.0913,-1.0895,-1.0912,-1.0935,-1.094,-1.0944,-1.0948,-1.0959,-1.0963,-1.0913,-1.0913,-1.0914,0,-1.1051,-1.1046,-1.1022,-1.1022,-1.1015,-1.0987,-1.0991,-1.0982,-1.0963,-1.0959,-1.0947,-1.0933,-1.0919,-1.0921,-1.0928,-1.0923,-1.0924,-1.0914,-1.0946,-1.0949,-1.0952,-1.0962,-1.0966,-1.0916,-1.0915,-1.0915,-1.0915,0,-1.1077,-1.1073,-1.1079,-1.1062,-1.1056,-1.1058,-1.1035,-1.1032,-1.1017,-1.1002,-1.1002,-1.0985,-1.0973,-1.0973,-1.0957,-1.0973,-1.0967,-1.0951,-1.093,-1.096,-1.0968,-1.0972,-1.0919,-1.0918,-1.0917,-1.0917,0,0,-1.1128,-1.11,-1.1102,-1.1095,-1.1074,-1.1071,-1.1072,-1.1062,-1.106,-1.1049,-1.1049,-1.1041,-1.1027,-1.1019,-1.1002,-1.1006,-1.1031,-1.099,-1.0989,-1.0998,-1.1048,-1.106,-1.1065,-1.1019,-1.102,-1.1021,-1.105,0,-1.1155,-1.1155,-1.1135,-1.1141,-1.1138,-1.1112,-1.1113,-1.1101,-1.1088,-1.1084,-1.1069,-1.1064,-1.1045,-1.1041,-1.1043,-1.1028,-1.1041,-1.1025,-1.102,-1.102,-1.1024,-1.1069,-1.1081,-1.1109,-1.1053,-1.1053,-1.1054,0,-1.1186,-1.1177,-1.1183,-1.1164,-1.1162,-1.1164,-1.1153,-1.1149,-1.1136,-1.1126,-1.1118,-1.11,-1.11,-1.1081,-1.1081,-1.1071,-1.1068,-1.106,-1.1061,-1.1059,-1.1038,-1.1069,-1.1118,-1.1122,-1.1059,-1.1059,-1.1058,0,-1.1223,-1.1213,-1.1216,-1.121,-1.1188,-1.119,-1.118,-1.1166,-1.1162,-1.1153,-1.115,-1.1141,-1.1136,-1.113,-1.111,-1.1098,-1.1113,-1.1092,-1.1105,-1.1105,-1.1108,-1.1108,-1.1157,-1.1107,-1.1106,-1.1106,-1.1106,0,-1.1255,-1.126,-1.1232,-1.1234,-1.1239,-1.1216,-1.1221,-1.121,-1.1198,-1.1197,-1.1174,-1.1173,-1.1147,-1.1144,-1.1129,-1.1132,-1.113,-1.1122,-1.1118,-1.1124,-1.1125,-1.1121,-1.1118,-1.1107,-1.1107,-1.1107,-1.1107,0,-1.1298,-1.1279,-1.128,-1.126,-1.1255,-1.126,-1.1242,-1.1243,-1.1229,-1.1228,-1.1227,-1.1205,-1.12,-1.118,-1.117,-1.116,-1.1168,-1.116,-1.1173,-1.117,-1.1185,-1.1184,-1.1233,-1.1238,-1.1184,-1.1185,-1.1185,0,-1.1319,-1.1322,-1.1303,-1.1301,-1.1293,-1.129,-1.1286,-1.1264,-1.1261,-1.1247,-1.1249,-1.1243,-1.1237,-1.1231,-1.1214,-1.1207,-1.1198,-1.1216,-1.1197,-1.1204,-1.1199,-1.1199,-1.12,-1.122,-1.1221,-1.1221,-1.1222,0,-1.136,-1.1351,-1.1346,-1.1338,-1.1334,-1.1327,-1.1318,-1.1318,-1.1294,-1.1291,-1.1287,-1.1282,-1.1273,-1.1267,-1.1258,-1.1249,-1.1232,-1.1228,-1.1231,-1.1237,-1.1245,-1.1241,-1.1184,-1.1227,-1.1227,-1.1226,-1.1226,-1.1226,-1.1392,-1.1394,-1.1382,-1.1377,-1.1369,-1.1362,-1.1362,-1.1349,-1.1345,-1.1336,-1.1323,-1.1321,-1.1308,-1.1294,-1.1286,-1.1284,-1.1274,-1.1278,-1.1279,-1.128,-1.1284,-1.1246,-1.1282,-1.1282,-1.1282,-1.1282,-1.1282,0,-1.1432,-1.1423,-1.1419,-1.1408,-1.1405,-1.139,-1.1381,-1.1379,-1.1377,-1.1367,-1.1362,-1.1358,-1.1352,-1.1336,-1.133,-1.1331,-1.1323,-1.133,-1.133,-1.1328,-1.1292,-1.1291,-1.1337,-1.1337,-1.1337,-1.1337,-1.1337,-1.1337,-1.1452,-1.1455,-1.1445,-1.1445,-1.1435,-1.1433,-1.1429,-1.1422,-1.1415,-1.1411,-1.1407,-1.1396,-1.1384,-1.1377,-1.1372,-1.1367,-1.1366,-1.1375,-1.1368,-1.1335,-1.133,-1.1325,-1.1324,-1.1375,-1.1375,-1.1404,-1.1404,-1.1404]}]]